| time (UTC) | temp F | wind direction | speed MPH | gust MPH | rain 1hr in | rain 24hr in | rain mn in | humidity % | barometer mb |
| 20260903065649 | 71 | 54 | 0.0 | 1.0 | 0.00 | 0.37 | 0.00 | 93 | 1017.7 |
| 20260903065149 | 71 | 54 | 0.0 | 1.0 | 0.00 | 0.37 | 0.00 | 93 | 1017.7 |
| 20260903064651 | 71 | 260 | 0.0 | 1.0 | 0.00 | 0.37 | 0.00 | 93 | 1017.7 |
| 20260903064151 | 71 | 100 | 0.0 | 1.0 | 0.00 | 0.37 | 0.00 | 93 | 1017.8 |
| 20260903063649 | 71 | 54 | 0.0 | 1.0 | 0.00 | 0.37 | 0.00 | 93 | 1017.9 |
| 20260903063441 | 71 | 11 | 0.0 | 1.0 | 0.00 | 0.37 | 0.00 | 93 | 1017.9 |
| 20260903062650 | 71 | 11 | 0.0 | 1.0 | 0.00 | 0.37 | 0.00 | 93 | 1017.9 |
| 20260903062146 | 71 | 100 | 0.0 | 1.0 | 0.00 | 0.37 | 0.00 | 93 | 1017.9 |
| 20260903061647 | 71 | 11 | 0.0 | 1.0 | 0.00 | 0.37 | 0.00 | 93 | 1017.9 |
| 20260903061146 | 71 | 100 | 0.0 | 1.0 | 0.00 | 0.37 | 0.00 | 93 | 1018.0 |
| 20260903060939 | 71 | 54 | 0.0 | 1.0 | 0.00 | 0.37 | 0.00 | 93 | 1018.0 |
| 20260903060146 | 71 | 54 | 0.0 | 1.0 | 0.00 | 0.37 | 0.00 | 93 | 1018.1 |
| 20260903055939 | 71 | 326 | 0.0 | 1.0 | 0.00 | 0.37 | 0.00 | 93 | 1018.1 |
| 20260903055145 | 71 | 54 | 0.0 | 1.0 | 0.00 | 0.37 | 0.00 | 93 | 1018.2 |
| 20260903054646 | 71 | 54 | 0.0 | 1.0 | 0.00 | 0.37 | 0.00 | 93 | 1018.4 |
| 20260903054147 | 71 | 353 | 0.0 | 1.0 | 0.00 | 0.37 | 0.00 | 93 | 1018.4 |
| 20260903053642 | 71 | 54 | 0.0 | 1.0 | 0.00 | 0.37 | 0.00 | 93 | 1018.2 |
| 20260903053142 | 71 | 54 | 0.0 | 1.0 | 0.00 | 0.37 | 0.00 | 93 | 1018.2 |
| 20260903052641 | 72 | 11 | 0.0 | 1.0 | 0.00 | 0.37 | 0.00 | 93 | 1018.2 |
| 20260903052140 | 72 | 326 | 0.0 | 1.0 | 0.00 | 0.37 | 0.00 | 93 | 1018.3 |
| 20260903051640 | 72 | 54 | 0.0 | 1.0 | 0.00 | 0.37 | 0.00 | 93 | 1018.1 |
| 20260903051140 | 72 | 234 | 0.0 | 1.0 | 0.00 | 0.37 | 0.00 | 93 | 1018.2 |
| 20260903050641 | 72 | 11 | 0.0 | 1.0 | 0.00 | 0.37 | 0.00 | 93 | 1018.1 |
| 20260903050143 | 72 | 54 | 0.0 | 3.0 | 0.00 | 0.37 | 0.00 | 93 | 1018.3 |
| 20260903045930 | 72 | 54 | 0.0 | 3.0 | 0.00 | 0.37 | 0.00 | 93 | 1018.3 |
| 20260903045137 | 72 | 143 | 0.0 | 1.0 | 0.00 | 0.37 | 0.00 | 93 | 1018.5 |
| 20260903044637 | 72 | 54 | 0.0 | 1.0 | 0.00 | 0.37 | 0.00 | 93 | 1018.5 |
| 20260903044133 | 72 | 54 | 0.0 | 1.0 | 0.00 | 0.37 | 0.00 | 93 | 1018.6 |
| 20260903043634 | 72 | 54 | 0.0 | 1.0 | 0.00 | 0.37 | 0.00 | 93 | 1018.7 |
| 20260903043132 | 72 | 11 | 0.0 | 1.0 | 0.00 | 0.37 | 0.00 | 93 | 1018.5 |
| 20260903042632 | 72 | 28 | 0.0 | 1.0 | 0.00 | 0.37 | 0.00 | 93 | 1018.7 |
| 20260903042132 | 72 | 37 | 0.0 | 1.0 | 0.00 | 0.37 | 0.00 | 93 | 1018.8 |
| 20260903041920 | 72 | 11 | 0.0 | 3.0 | 0.00 | 0.37 | 0.00 | 93 | 1018.8 |
| 20260903041132 | 72 | 37 | 0.0 | 3.0 | 0.00 | 0.37 | 0.00 | 93 | 1019.1 |
| 20260903040713 | 72 | 54 | 0.0 | 1.0 | 0.00 | 0.37 | 0.00 | 93 | 1019.1 |
| 20260903040700 | 72 | 41 | 0.0 | 1.0 | 0.00 | 0.37 | 0.00 | 93 | 1019.0 |
| 20260903035631 | 72 | 11 | 0.0 | 1.0 | 0.00 | 0.37 | 0.37 | 93 | 1019.0 |
| 20260903035130 | 72 | 11 | 0.0 | 1.0 | 0.00 | 0.37 | 0.37 | 93 | 1018.8 |
| 20260903034631 | 72 | 296 | 0.0 | 1.0 | 0.00 | 0.37 | 0.37 | 93 | 1018.9 |
| 20260903034130 | 72 | 11 | 0.0 | 1.0 | 0.00 | 0.37 | 0.37 | 93 | 1019.0 |
| 20260903033632 | 72 | 54 | 0.0 | 1.0 | 0.00 | 0.37 | 0.37 | 93 | 1019.0 |
| 20260903033423 | 73 | 326 | 0.0 | 1.0 | 0.00 | 0.37 | 0.37 | 93 | 1018.9 |
| 20260903032620 | 73 | 11 | 0.0 | 1.0 | 0.00 | 0.37 | 0.37 | 92 | 1018.9 |
| 20260903032113 | 73 | 171 | 0.0 | 1.0 | 0.00 | 0.37 | 0.37 | 92 | 1019.0 |
| 20260903031607 | 73 | 143 | 0.0 | 1.0 | 0.00 | 0.37 | 0.37 | 92 | 1019.0 |
| 20260903031109 | 73 | 11 | 0.0 | 1.0 | 0.00 | 0.37 | 0.37 | 92 | 1018.9 |
| 20260903030607 | 73 | 89 | 0.0 | 3.0 | 0.00 | 0.37 | 0.37 | 92 | 1018.8 |
| 20260903030108 | 73 | 234 | 0.0 | 3.0 | 0.00 | 0.37 | 0.37 | 93 | 1018.9 |
| 20260903025606 | 73 | 54 | 0.0 | 3.0 | 0.00 | 0.37 | 0.37 | 93 | 1018.8 |
| 20260903025102 | 73 | 143 | 0.0 | 3.0 | 0.00 | 0.37 | 0.37 | 93 | 1018.8 |
| 20260903024604 | 73 | 54 | 0.0 | 3.0 | 0.00 | 0.37 | 0.37 | 92 | 1018.8 |
| 20260903024102 | 73 | 353 | 0.0 | 1.0 | 0.00 | 0.37 | 0.37 | 92 | 1018.9 |
| 20260903023602 | 73 | 117 | 0.0 | 3.0 | 0.00 | 0.37 | 0.37 | 92 | 1018.9 |
| 20260903023101 | 73 | 11 | 0.0 | 3.0 | 0.00 | 0.37 | 0.37 | 92 | 1019.1 |
| 20260903022602 | 73 | 41 | 0.0 | 1.0 | 0.00 | 0.37 | 0.37 | 92 | 1019.0 |
| 20260903022103 | 73 | 54 | 0.0 | 1.0 | 0.00 | 0.37 | 0.37 | 92 | 1018.7 |
| 20260903021601 | 73 | 279 | 0.0 | 1.0 | 0.00 | 0.37 | 0.37 | 92 | 1018.7 |
| 20260903021104 | 73 | 100 | 0.0 | 1.0 | 0.00 | 0.37 | 0.37 | 92 | 1018.6 |
| 20260903020602 | 73 | 28 | 0.0 | 1.0 | 0.00 | 0.37 | 0.37 | 92 | 1018.5 |
| 20260903015703 | 73 | 279 | 0.0 | 1.0 | 0.00 | 0.37 | 0.37 | 92 | 1018.4 |
| 20260903015643 | 73 | 353 | 0.0 | 3.0 | 0.00 | 0.37 | 0.37 | 92 | 1018.4 |
| 20260903014858 | 73 | 11 | 0.0 | 3.0 | 0.00 | 0.37 | 0.37 | 92 | 1018.1 |
| 20260903014103 | 73 | 353 | 0.0 | 3.0 | 0.00 | 0.37 | 0.37 | 91 | 1018.4 |
| 20260903013851 | 74 | 188 | 0.0 | 3.0 | 0.00 | 0.37 | 0.37 | 92 | 1018.3 |
| 20260903013105 | 74 | 205 | 0.0 | 1.0 | 0.00 | 0.37 | 0.37 | 92 | 1018.3 |
| 20260903012602 | 74 | 54 | 0.0 | 1.0 | 0.00 | 0.37 | 0.37 | 92 | 1018.5 |
| 20260903012103 | 74 | 100 | 1.0 | 3.0 | 0.00 | 0.37 | 0.37 | 91 | 1018.6 |
| 20260903011851 | 74 | 143 | 1.0 | 3.0 | 0.00 | 0.37 | 0.37 | 91 | 1018.7 |
| 20260903011101 | 74 | 162 | 0.0 | 3.0 | 0.00 | 0.37 | 0.37 | 91 | 1018.6 |
| 20260903010602 | 74 | 100 | 0.0 | 1.0 | 0.00 | 0.37 | 0.37 | 91 | 1018.7 |
| 20260903005600 | 74 | 11 | 0.0 | 3.0 | 0.00 | 0.37 | 0.37 | 91 | 1018.7 |
| 20260903005358 | 74 | 11 | 1.0 | 3.0 | 0.00 | 0.37 | 0.37 | 91 | 1018.8 |
| 20260903004600 | 74 | 41 | 1.0 | 3.0 | 0.00 | 0.37 | 0.37 | 91 | 1018.9 |
| 20260903004103 | 74 | 248 | 1.0 | 3.0 | 0.00 | 0.37 | 0.37 | 91 | 1018.8 |
| 20260903003854 | 74 | 54 | 1.0 | 3.0 | 0.00 | 0.37 | 0.37 | 91 | 1018.7 |
| 20260903003102 | 74 | 11 | 0.0 | 3.0 | 0.00 | 0.37 | 0.37 | 91 | 1018.6 |
| 20260903002602 | 74 | 70 | 0.0 | 3.0 | 0.00 | 0.37 | 0.37 | 90 | 1018.5 |
| 20260903002057 | 75 | 82 | 0.0 | 3.0 | 0.00 | 0.37 | 0.37 | 90 | 1018.6 |
| 20260903001551 | 75 | 171 | 0.0 | 3.0 | 0.00 | 0.37 | 0.37 | 90 | 1018.6 |
| 20260903001045 | 75 | 11 | 0.0 | 1.0 | 0.00 | 0.37 | 0.37 | 90 | 1018.5 |
| 20260903000540 | 75 | 234 | 0.0 | 1.0 | 0.00 | 0.37 | 0.37 | 90 | 1018.5 |
| 20260903000032 | 75 | 11 | 0.0 | 1.0 | 0.00 | 0.37 | 0.37 | 90 | 1018.6 |
| 20260902235822 | 75 | 28 | 0.0 | 1.0 | 0.00 | 0.37 | 0.37 | 90 | 1018.5 |
| 20260902235030 | 75 | 143 | 0.0 | 1.0 | 0.00 | 0.37 | 0.37 | 90 | 1018.8 |
| 20260902234529 | 75 | 100 | 0.0 | 1.0 | 0.00 | 0.37 | 0.37 | 90 | 1018.8 |
| 20260902234030 | 76 | 326 | 0.0 | 1.0 | 0.00 | 0.37 | 0.37 | 90 | 1018.8 |
| 20260902233530 | 76 | 11 | 0.0 | 1.0 | 0.00 | 0.37 | 0.37 | 90 | 1018.7 |
| 20260902233031 | 76 | 54 | 0.0 | 3.0 | 0.00 | 0.37 | 0.37 | 90 | 1018.5 |
| 20260902232530 | 76 | 11 | 0.0 | 3.0 | 0.00 | 0.37 | 0.37 | 90 | 1018.6 |
| 20260902232030 | 76 | 54 | 1.0 | 3.0 | 0.00 | 0.37 | 0.37 | 90 | 1018.6 |
| 20260902231530 | 76 | 117 | 1.0 | 3.0 | 0.00 | 0.37 | 0.37 | 90 | 1018.9 |
| 20260902231028 | 76 | 205 | 0.0 | 3.0 | 0.00 | 0.37 | 0.37 | 90 | 1018.6 |
| 20260902230531 | 76 | 143 | 0.0 | 1.0 | 0.00 | 0.37 | 0.37 | 90 | 1018.6 |
| 20260902230029 | 76 | 11 | 0.0 | 1.0 | 0.00 | 0.37 | 0.37 | 90 | 1018.7 |
| 20260902225529 | 76 | 100 | 0.0 | 1.0 | 0.00 | 0.37 | 0.37 | 90 | 1018.9 |
| 20260902225029 | 76 | 11 | 0.0 | 1.0 | 0.00 | 0.37 | 0.37 | 90 | 1018.8 |
| 20260902224533 | 76 | 326 | 0.0 | 1.0 | 0.00 | 0.37 | 0.37 | 91 | 1018.9 |
| 20260902224030 | 76 | 326 | 0.0 | 1.0 | 0.00 | 0.37 | 0.37 | 91 | 1018.9 |
| 20260902223524 | 76 | 11 | 0.0 | 3.0 | 0.00 | 0.37 | 0.37 | 91 | 1019.0 |
| 20260902223314 | 76 | 143 | 1.0 | 3.0 | 0.00 | 0.37 | 0.37 | 91 | 1018.8 |
| 20260902222601 | 76 | 353 | 0.0 | 3.0 | 0.00 | 0.37 | 0.37 | 92 | 1018.9 |
| 20260902222543 | 76 | 54 | 0.0 | 3.0 | 0.00 | 0.37 | 0.37 | 91 | 1018.7 |
| 20260902221511 | 76 | 171 | 0.0 | 3.0 | 0.00 | 0.37 | 0.37 | 92 | 1018.8 |
| 20260902221302 | 76 | 11 | 0.0 | 3.0 | 0.00 | 0.37 | 0.37 | 92 | 1018.7 |
| 20260902220758 | 76 | 11 | 0.0 | 3.0 | 0.00 | 0.37 | 0.37 | 92 | 1018.8 |
| 20260902220011 | 76 | 100 | 0.0 | 1.0 | 0.00 | 0.37 | 0.37 | 93 | 1019.1 |
| 20260902215511 | 76 | 82 | 0.0 | 3.0 | 0.00 | 0.37 | 0.37 | 93 | 1019.2 |
| 20260902215009 | 76 | 54 | 1.0 | 4.0 | 0.00 | 0.37 | 0.37 | 92 | 1019.2 |
| 20260902214801 | 76 | 82 | 1.0 | 4.0 | 0.00 | 0.37 | 0.37 | 92 | 1019.4 |
| 20260902214011 | 76 | 268 | 0.0 | 4.0 | 0.00 | 0.37 | 0.37 | 93 | 1019.5 |
| 20260902213506 | 75 | 279 | 0.0 | 3.0 | 0.00 | 0.37 | 0.37 | 93 | 1019.5 |
| 20260902213007 | 75 | 353 | 0.0 | 1.0 | 0.00 | 0.37 | 0.37 | 93 | 1019.4 |
| 20260902212506 | 75 | 28 | 0.0 | 1.0 | 0.00 | 0.37 | 0.37 | 92 | 1019.4 |
| 20260902212006 | 74 | 143 | 0.0 | 1.0 | 0.00 | 0.37 | 0.37 | 92 | 1019.4 |
| 20260902211507 | 74 | 73 | 0.0 | 3.0 | 0.00 | 0.37 | 0.37 | 92 | 1019.3 |
| 20260902211007 | 74 | 69 | 0.0 | 3.0 | 0.00 | 0.37 | 0.37 | 92 | 1019.2 |
| 20260902210507 | 74 | 100 | 0.0 | 1.0 | 0.00 | 0.37 | 0.37 | 92 | 1019.3 |
| 20260902210008 | 74 | 116 | 0.0 | 1.0 | 0.00 | 0.37 | 0.37 | 92 | 1019.1 |
| 20260902205803 | 74 | 11 | 0.0 | 1.0 | 0.00 | 0.37 | 0.37 | 91 | 1019.1 |
| 20260902205001 | 74 | 143 | 0.0 | 1.0 | 0.00 | 0.37 | 0.37 | 91 | 1019.2 |
| 20260902204502 | 74 | 143 | 0.0 | 1.0 | 0.00 | 0.37 | 0.37 | 91 | 1019.2 |
| 20260902204002 | 74 | 82 | 0.0 | 1.0 | 0.00 | 0.37 | 0.37 | 91 | 1019.1 |
| 20260902203503 | 74 | 54 | 0.0 | 3.0 | 0.00 | 0.37 | 0.37 | 91 | 1019.1 |
| 20260902203003 | 74 | 326 | 0.0 | 3.0 | 0.00 | 0.37 | 0.37 | 90 | 1019.1 |
| 20260902202502 | 74 | 326 | 0.0 | 1.0 | 0.00 | 0.37 | 0.37 | 90 | 1019.0 |
| 20260902202002 | 74 | 188 | 0.0 | 1.0 | 0.00 | 0.37 | 0.37 | 90 | 1019.0 |
| 20260902201756 | 74 | 116 | 0.0 | 1.0 | 0.00 | 0.37 | 0.37 | 90 | 1019.1 |
| 20260902201003 | 74 | 11 | 0.0 | 1.0 | 0.00 | 0.37 | 0.37 | 90 | 1019.1 |
| 20260902200503 | 74 | 11 | 0.0 | 1.0 | 0.00 | 0.37 | 0.37 | 90 | 1019.4 |
| 20260902200004 | 74 | 28 | 0.0 | 1.0 | 0.00 | 0.37 | 0.37 | 90 | 1019.6 |
| 20260902195503 | 74 | 11 | 0.0 | 3.0 | 0.00 | 0.37 | 0.37 | 90 | 1019.7 |
| 20260902195002 | 74 | 326 | 1.0 | 3.0 | 0.00 | 0.37 | 0.37 | 89 | 1019.9 |
| 20260902194502 | 74 | 188 | 1.0 | 3.0 | 0.00 | 0.37 | 0.37 | 89 | 1019.8 |
| 20260902194002 | 75 | 125 | 1.0 | 3.0 | 0.00 | 0.37 | 0.37 | 89 | 1019.4 |
| 20260902193504 | 75 | 143 | 1.0 | 4.0 | 0.00 | 0.37 | 0.37 | 89 | 1019.4 |
| 20260902193001 | 75 | 158 | 1.0 | 4.0 | 0.00 | 0.37 | 0.37 | 89 | 1019.1 |
| 20260902192501 | 75 | 162 | 1.0 | 3.0 | 0.00 | 0.37 | 0.37 | 88 | 1018.7 |
| 20260902192002 | 75 | 89 | 1.0 | 3.0 | 0.00 | 0.37 | 0.37 | 88 | 1018.6 |
| 20260902191803 | 75 | 210 | 1.0 | 3.0 | 0.01 | 0.37 | 0.37 | 88 | 1018.9 |
| 20260902191002 | 75 | 143 | 0.0 | 3.0 | 0.05 | 0.37 | 0.37 | 87 | 1018.9 |
| 20260902190501 | 76 | 188 | 0.0 | 1.0 | 0.18 | 0.37 | 0.37 | 87 | 1018.9 |
| 20260902190002 | 76 | 11 | 0.0 | 1.0 | 0.35 | 0.37 | 0.37 | 87 | 1019.0 |
| 20260902185601 | 76 | 188 | 0.0 | 3.0 | 0.37 | 0.37 | 0.37 | 86 | 1019.5 |
| 20260902185542 | 76 | 279 | 0.0 | 3.0 | 0.37 | 0.37 | 0.37 | 86 | 1019.3 |
| 20260902184501 | 76 | 205 | 0.0 | 1.0 | 0.37 | 0.37 | 0.37 | 85 | 1019.5 |
| 20260902184001 | 76 | 54 | 0.0 | 3.0 | 0.37 | 0.37 | 0.37 | 85 | 1019.7 |
| 20260902183504 | 76 | 188 | 1.0 | 4.0 | 0.37 | 0.37 | 0.37 | 85 | 1020.0 |
| 20260902183003 | 77 | 132 | 1.0 | 4.0 | 0.37 | 0.37 | 0.37 | 84 | 1020.2 |
| 20260902182502 | 77 | 345 | 1.0 | 4.0 | 0.37 | 0.37 | 0.37 | 82 | 1020.3 |
| 20260902182001 | 77 | 135 | 1.0 | 4.0 | 0.37 | 0.37 | 0.37 | 81 | 1020.5 |
| 20260902181502 | 78 | 28 | 1.0 | 4.0 | 0.36 | 0.36 | 0.36 | 79 | 1020.7 |
| 20260902181001 | 78 | 316 | 2.0 | 11.0 | 0.32 | 0.32 | 0.30 | 77 | 1021.4 |
| 20260902180501 | 80 | 54 | 3.0 | 11.0 | 0.19 | 0.19 | 0.16 | 75 | 1021.2 |
| 20260902175959 | 82 | 357 | 3.0 | 9.0 | 0.02 | 0.02 | 0.01 | 70 | 1021.4 |
| 20260902175500 | 83 | 306 | 3.0 | 11.0 | 0.00 | 0.00 | 0.00 | 65 | 1021.3 |
| 20260902174959 | 85 | 348 | 5.0 | 16.0 | 0.00 | 0.00 | 0.00 | 62 | 1021.1 |
| 20260902174501 | 87 | 27 | 4.0 | 16.0 | 0.00 | 0.00 | 0.00 | 59 | 1021.0 |
| 20260902174000 | 91 | 83 | 2.0 | 14.0 | 0.00 | 0.00 | 0.00 | 61 | 1020.6 |
| 20260902173457 | 93 | 35 | 2.0 | 4.0 | 0.00 | 0.00 | 0.00 | 58 | 1020.5 |
| 20260902173251 | 93 | 11 | 1.0 | 4.0 | 0.00 | 0.00 | 0.00 | 56 | 1020.5 |
| 20260902172457 | 93 | 11 | 1.0 | 4.0 | 0.00 | 0.00 | 0.00 | 58 | 1020.3 |
| 20260902171955 | 93 | 54 | 1.0 | 4.0 | 0.00 | 0.00 | 0.00 | 58 | 1020.2 |
| 20260902171456 | 93 | 21 | 2.0 | 4.0 | 0.00 | 0.00 | 0.00 | 58 | 1020.1 |
| 20260902170955 | 92 | 260 | 2.0 | 5.0 | 0.00 | 0.00 | 0.00 | 57 | 1020.1 |
| 20260902170453 | 93 | 263 | 1.0 | 5.0 | 0.00 | 0.00 | 0.00 | 56 | 1020.1 |
| 20260902165955 | 93 | 326 | 1.0 | 4.0 | 0.00 | 0.00 | 0.00 | 57 | 1020.0 |
| 20260902165455 | 92 | 28 | 1.0 | 4.0 | 0.00 | 0.00 | 0.00 | 57 | 1019.9 |
| 20260902165253 | 92 | 143 | 1.0 | 4.0 | 0.00 | 0.00 | 0.00 | 58 | 1019.8 |
| 20260902164542 | 92 | 21 | 1.0 | 3.0 | 0.00 | 0.00 | 0.00 | 58 | 1019.8 |
| 20260902164522 | 92 | 54 | 1.0 | 4.0 | 0.00 | 0.00 | 0.00 | 58 | 1019.8 |
| 20260902163437 | 92 | 353 | 1.0 | 3.0 | 0.00 | 0.00 | 0.00 | 58 | 1019.7 |
| 20260902162939 | 92 | 11 | 1.0 | 3.0 | 0.00 | 0.00 | 0.00 | 59 | 1019.7 |
| 20260902162438 | 92 | 54 | 0.0 | 3.0 | 0.00 | 0.00 | 0.00 | 60 | 1019.7 |
| 20260902162234 | 91 | 54 | 1.0 | 3.0 | 0.00 | 0.00 | 0.00 | 60 | 1019.7 |
| 20260902161436 | 91 | 296 | 1.0 | 3.0 | 0.00 | 0.00 | 0.00 | 62 | 1019.7 |
| 20260902160936 | 90 | 41 | 1.0 | 4.0 | 0.00 | 0.00 | 0.00 | 62 | 1019.7 |
| 20260902160724 | 90 | 100 | 1.0 | 4.0 | 0.00 | 0.00 | 0.00 | 62 | 1019.5 |
| 20260902155933 | 89 | 296 | 1.0 | 4.0 | 0.00 | 0.00 | 0.00 | 62 | 1019.5 |
| 20260902155535 | 89 | 70 | 1.0 | 4.0 | 0.00 | 0.00 | 0.00 | 64 | 1019.5 |
| 20260902155514 | 89 | 18 | 1.0 | 4.0 | 0.00 | 0.00 | 0.00 | 62 | 1019.5 |
| 20260902154724 | 88 | 54 | 1.0 | 4.0 | 0.00 | 0.00 | 0.00 | 65 | 1019.4 |
| 20260902153931 | 87 | 11 | 1.0 | 4.0 | 0.00 | 0.00 | 0.00 | 66 | 1019.5 |
| 20260902153432 | 86 | 54 | 1.0 | 4.0 | 0.00 | 0.00 | 0.00 | 67 | 1019.4 |
| 20260902152931 | 86 | 28 | 1.0 | 4.0 | 0.00 | 0.00 | 0.00 | 70 | 1019.5 |
| 20260902152432 | 85 | 194 | 1.0 | 5.0 | 0.00 | 0.00 | 0.00 | 69 | 1019.5 |
| 20260902151932 | 85 | 54 | 1.0 | 5.0 | 0.00 | 0.00 | 0.00 | 72 | 1019.6 |
| 20260902151431 | 84 | 143 | 1.0 | 4.0 | 0.00 | 0.00 | 0.00 | 72 | 1019.6 |
| 20260902150930 | 83 | 54 | 1.0 | 5.0 | 0.00 | 0.00 | 0.00 | 73 | 1019.4 |
| 20260902150428 | 83 | 11 | 2.0 | 5.0 | 0.00 | 0.00 | 0.00 | 73 | 1019.3 |
| 20260902145926 | 83 | 63 | 1.0 | 4.0 | 0.00 | 0.00 | 0.00 | 74 | 1019.4 |
| 20260902145423 | 82 | 69 | 1.0 | 3.0 | 0.00 | 0.00 | 0.00 | 74 | 1019.4 |
| 20260902144923 | 82 | 345 | 1.0 | 4.0 | 0.00 | 0.00 | 0.00 | 75 | 1019.4 |
| 20260902144423 | 82 | 125 | 1.0 | 4.0 | 0.00 | 0.00 | 0.00 | 75 | 1019.3 |
| 20260902143923 | 81 | 41 | 1.0 | 4.0 | 0.00 | 0.00 | 0.00 | 76 | 1019.4 |
| 20260902143717 | 81 | 37 | 1.0 | 4.0 | 0.00 | 0.00 | 0.00 | 77 | 1019.3 |
| 20260902142923 | 81 | 86 | 1.0 | 3.0 | 0.00 | 0.00 | 0.00 | 78 | 1019.3 |
| 20260902142424 | 80 | 11 | 1.0 | 3.0 | 0.00 | 0.00 | 0.00 | 78 | 1019.5 |
| 20260902141924 | 80 | 54 | 1.0 | 4.0 | 0.00 | 0.00 | 0.00 | 79 | 1019.5 |
| 20260902141423 | 80 | 54 | 1.0 | 4.0 | 0.00 | 0.00 | 0.00 | 80 | 1019.5 |
| 20260902140924 | 79 | 82 | 1.0 | 4.0 | 0.00 | 0.00 | 0.00 | 81 | 1019.6 |
| 20260902140424 | 79 | 44 | 1.0 | 4.0 | 0.00 | 0.00 | 0.00 | 83 | 1019.6 |
| 20260902135923 | 78 | 234 | 1.0 | 3.0 | 0.00 | 0.00 | 0.00 | 84 | 1019.5 |
| 20260902135659 | 78 | 37 | 1.0 | 3.0 | 0.00 | 0.00 | 0.00 | 85 | 1019.5 |
| 20260902134923 | 78 | 234 | 1.0 | 3.0 | 0.00 | 0.00 | 0.00 | 86 | 1019.5 |
| 20260902134423 | 77 | 198 | 1.0 | 3.0 | 0.00 | 0.00 | 0.00 | 86 | 1019.4 |
| 20260902133924 | 77 | 268 | 1.0 | 4.0 | 0.00 | 0.00 | 0.00 | 87 | 1019.4 |
| 20260902133418 | 76 | 296 | 1.0 | 4.0 | 0.00 | 0.00 | 0.00 | 88 | 1019.3 |
| 20260902132912 | 76 | 89 | 1.0 | 3.0 | 0.00 | 0.00 | 0.00 | 89 | 1019.2 |
| 20260902132408 | 76 | 11 | 1.0 | 4.0 | 0.00 | 0.00 | 0.00 | 90 | 1019.1 |
| 20260902132248 | 75 | 100 | 1.0 | 4.0 | 0.00 | 0.00 | 0.00 | 93 | 1019.2 |
| 20260902132242 | 75 | 73 | 1.0 | 4.0 | 0.00 | 0.00 | 0.00 | 91 | 1019.3 |
| 20260902130907 | 75 | 54 | 1.0 | 4.0 | 0.00 | 0.00 | 0.00 | 93 | 1019.1 |
| 20260902130701 | 75 | 82 | 1.0 | 3.0 | 0.00 | 0.00 | 0.00 | 93 | 1019.1 |
| 20260902125909 | 74 | 198 | 0.0 | 3.0 | 0.00 | 0.00 | 0.00 | 93 | 1019.0 |
| 20260902125409 | 74 | 234 | 0.0 | 1.0 | 0.00 | 0.00 | 0.00 | 93 | 1018.9 |
| 20260902125002 | 74 | 54 | 1.0 | 3.0 | 0.00 | 0.00 | 0.00 | 93 | 1019.1 |
| 20260902124944 | 74 | 260 | 0.0 | 3.0 | 0.00 | 0.00 | 0.00 | 93 | 1019.0 |
| 20260902123908 | 74 | 234 | 1.0 | 3.0 | 0.00 | 0.00 | 0.00 | 93 | 1019.1 |
| 20260902123408 | 74 | 234 | 0.0 | 3.0 | 0.00 | 0.00 | 0.00 | 93 | 1019.0 |
| 20260902122906 | 74 | 11 | 0.0 | 3.0 | 0.00 | 0.00 | 0.00 | 93 | 1019.0 |
| 20260902122651 | 74 | 289 | 0.0 | 3.0 | 0.00 | 0.00 | 0.00 | 93 | 1019.1 |
| 20260902121903 | 74 | 11 | 0.0 | 3.0 | 0.00 | 0.00 | 0.00 | 93 | 1019.0 |
| 20260902121404 | 74 | 279 | 1.0 | 3.0 | 0.00 | 0.00 | 0.00 | 93 | 1019.0 |
| 20260902120904 | 74 | 187 | 1.0 | 3.0 | 0.00 | 0.00 | 0.00 | 93 | 1019.0 |
| 20260902120403 | 73 | 215 | 0.0 | 3.0 | 0.00 | 0.00 | 0.00 | 93 | 1019.0 |
| 20260902115904 | 73 | 82 | 0.0 | 1.0 | 0.00 | 0.00 | 0.00 | 93 | 1018.9 |
| 20260902115403 | 73 | 143 | 0.0 | 1.0 | 0.00 | 0.00 | 0.00 | 93 | 1018.9 |
| 20260902114857 | 73 | 11 | 0.0 | 1.0 | 0.00 | 0.00 | 0.00 | 93 | 1018.9 |
| 20260902114653 | 73 | 28 | 0.0 | 1.0 | 0.00 | 0.00 | 0.00 | 93 | 1018.8 |
| 20260902113857 | 73 | 100 | 0.0 | 1.0 | 0.00 | 0.00 | 0.00 | 93 | 1018.8 |
| 20260902113357 | 73 | 82 | 0.0 | 1.0 | 0.00 | 0.00 | 0.00 | 93 | 1018.8 |
| 20260902112858 | 73 | 143 | 0.0 | 1.0 | 0.00 | 0.00 | 0.00 | 93 | 1018.8 |
| 20260902112354 | 73 | 54 | 0.0 | 1.0 | 0.00 | 0.00 | 0.00 | 93 | 1018.8 |
| 20260902112148 | 73 | 82 | 0.0 | 1.0 | 0.00 | 0.00 | 0.00 | 93 | 1018.9 |
| 20260902111352 | 73 | 73 | 0.0 | 1.0 | 0.00 | 0.00 | 0.00 | 93 | 1018.9 |
| 20260902110851 | 73 | 82 | 0.0 | 1.0 | 0.00 | 0.00 | 0.00 | 92 | 1019.0 |
| 20260902110351 | 73 | 11 | 0.0 | 1.0 | 0.00 | 0.00 | 0.00 | 92 | 1018.9 |
| 20260902105852 | 73 | 54 | 0.0 | 1.0 | 0.00 | 0.00 | 0.00 | 92 | 1018.8 |
| 20260902105641 | 73 | 100 | 0.0 | 1.0 | 0.00 | 0.00 | 0.00 | 92 | 1018.8 |
| 20260902104851 | 73 | 100 | 0.0 | 1.0 | 0.00 | 0.00 | 0.00 | 92 | 1018.9 |
| 20260902104350 | 73 | 100 | 0.0 | 1.0 | 0.00 | 0.00 | 0.00 | 92 | 1018.9 |
| 20260902103849 | 73 | 73 | 0.0 | 1.0 | 0.00 | 0.00 | 0.00 | 92 | 1019.0 |
| 20260902103350 | 73 | 54 | 0.0 | 1.0 | 0.00 | 0.00 | 0.00 | 92 | 1019.0 |
| 20260902103137 | 73 | 54 | 0.0 | 1.0 | 0.00 | 0.00 | 0.00 | 92 | 1018.9 |
| 20260902102629 | 73 | 11 | 0.0 | 1.0 | 0.00 | 0.00 | 0.00 | 92 | 1018.9 |
| 20260902101837 | 73 | 143 | 0.0 | 1.0 | 0.00 | 0.00 | 0.00 | 92 | 1019.0 |
| 20260902101339 | 73 | 54 | 0.0 | 1.0 | 0.00 | 0.00 | 0.00 | 92 | 1018.9 |
| 20260902100836 | 73 | 326 | 0.0 | 1.0 | 0.00 | 0.00 | 0.00 | 92 | 1018.9 |
| 20260902100338 | 73 | 82 | 0.0 | 1.0 | 0.00 | 0.00 | 0.00 | 92 | 1018.7 |
| 20260902100131 | 73 | 54 | 0.0 | 1.0 | 0.00 | 0.00 | 0.00 | 92 | 1018.7 |
| 20260902095338 | 73 | 54 | 0.0 | 1.0 | 0.00 | 0.00 | 0.00 | 92 | 1018.6 |
| 20260902094836 | 73 | 54 | 0.0 | 1.0 | 0.00 | 0.00 | 0.00 | 92 | 1018.6 |
| 20260902094338 | 73 | 11 | 0.0 | 1.0 | 0.00 | 0.00 | 0.00 | 92 | 1018.8 |
| 20260902093833 | 73 | 54 | 0.0 | 1.0 | 0.00 | 0.00 | 0.00 | 92 | 1018.7 |
| 20260902093623 | 73 | 11 | 0.0 | 1.0 | 0.00 | 0.00 | 0.00 | 91 | 1018.8 |
| 20260902092834 | 73 | 54 | 0.0 | 1.0 | 0.00 | 0.00 | 0.00 | 91 | 1018.8 |
| 20260902092332 | 73 | 100 | 0.0 | 1.0 | 0.00 | 0.00 | 0.00 | 91 | 1018.8 |
| 20260902091831 | 73 | 11 | 0.0 | 1.0 | 0.00 | 0.00 | 0.00 | 91 | 1018.8 |
| 20260902091331 | 73 | 100 | 0.0 | 1.0 | 0.00 | 0.00 | 0.00 | 91 | 1018.7 |
| 20260902090831 | 73 | 296 | 0.0 | 1.0 | 0.00 | 0.00 | 0.00 | 91 | 1018.7 |
| 20260902090330 | 73 | 54 | 0.0 | 1.0 | 0.00 | 0.00 | 0.00 | 91 | 1018.7 |
| 20260902085831 | 73 | 143 | 0.0 | 1.0 | 0.00 | 0.00 | 0.00 | 91 | 1018.6 |
| 20260902085333 | 73 | 54 | 0.0 | 3.0 | 0.00 | 0.00 | 0.00 | 91 | 1018.6 |
| 20260902084832 | 74 | 54 | 0.0 | 3.0 | 0.00 | 0.00 | 0.00 | 91 | 1018.7 |
| 20260902084330 | 74 | 260 | 0.0 | 1.0 | 0.00 | 0.00 | 0.00 | 91 | 1018.7 |
| 20260902084121 | 74 | 54 | 0.0 | 1.0 | 0.00 | 0.00 | 0.00 | 91 | 1018.7 |
| 20260902083327 | 74 | 143 | 1.0 | 3.0 | 0.00 | 0.00 | 0.00 | 91 | 1018.6 |
| 20260902082828 | 74 | 143 | 1.0 | 3.0 | 0.00 | 0.00 | 0.00 | 91 | 1018.6 |
| 20260902082326 | 74 | 73 | 0.0 | 1.0 | 0.00 | 0.00 | 0.00 | 91 | 1018.5 |
| 20260902081827 | 74 | 54 | 0.0 | 1.0 | 0.00 | 0.00 | 0.00 | 91 | 1018.6 |
| 20260902081326 | 74 | 326 | 0.0 | 1.0 | 0.00 | 0.00 | 0.00 | 91 | 1018.3 |
| 20260902080828 | 74 | 11 | 0.0 | 1.0 | 0.00 | 0.00 | 0.00 | 91 | 1018.3 |
| 20260902080327 | 74 | 353 | 0.0 | 1.0 | 0.00 | 0.00 | 0.00 | 91 | 1018.3 |
| 20260902075827 | 74 | 54 | 0.0 | 1.0 | 0.00 | 0.00 | 0.00 | 90 | 1018.3 |
| 20260902075323 | 74 | 11 | 0.0 | 1.0 | 0.00 | 0.00 | 0.00 | 90 | 1018.3 |
| 20260902074823 | 74 | 100 | 0.0 | 1.0 | 0.00 | 0.00 | 0.00 | 90 | 1018.3 |
| 20260902074323 | 74 | 279 | 0.0 | 1.0 | 0.00 | 0.00 | 0.00 | 90 | 1018.2 |
| 20260902074118 | 74 | 54 | 0.0 | 1.0 | 0.00 | 0.00 | 0.00 | 90 | 1018.3 |
| 20260902073324 | 74 | 54 | 0.0 | 1.0 | 0.00 | 0.00 | 0.00 | 90 | 1018.3 |
| 20260902072823 | 74 | 54 | 0.0 | 1.0 | 0.00 | 0.00 | 0.00 | 90 | 1018.2 |
| 20260902072323 | 74 | 100 | 0.0 | 3.0 | 0.00 | 0.00 | 0.00 | 90 | 1018.1 |
| 20260902071825 | 74 | 100 | 0.0 | 3.0 | 0.00 | 0.00 | 0.00 | 90 | 1018.2 |
| 20260902071414 | 75 | 11 | 0.0 | 1.0 | 0.00 | 0.00 | 0.00 | 90 | 1018.1 |
| 20260902071355 | 75 | 326 | 0.0 | 1.0 | 0.00 | 0.00 | 0.00 | 90 | 1018.1 |
| 20260902070321 | 75 | 54 | 0.0 | 1.0 | 0.00 | 0.00 | 0.00 | 90 | 1018.0 |
| 20260902070113 | 75 | 279 | 0.0 | 1.0 | 0.00 | 0.00 | 0.00 | 90 | 1018.0 |